TimeEST,TemperatureF,Dew PointF,Humidity,Sea Level PressureIn,VisibilityMPH,Wind Direction,Wind SpeedMPH,Gust SpeedMPH,PrecipitationIn,Events,Conditions,WindDirDegrees,DateUTC
12:15 AM,60.8,51.8,72,30.17,10.0,SSW,6.9,-,N/A,,Overcast,210,2012-12-05 05:15:00
12:35 AM,60.8,51.8,72,30.16,10.0,SSW,8.1,-,N/A,,Overcast,210,2012-12-05 05:35:00
12:55 AM,60.8,51.8,72,30.15,10.0,SW,8.1,-,N/A,,Mostly Cloudy,230,2012-12-05 05:55:00
1:15 AM,60.8,53.6,77,30.15,10.0,WSW,8.1,-,N/A,,Scattered Clouds,240,2012-12-05 06:15:00
1:35 AM,60.8,53.6,77,30.15,10.0,SW,9.2,-,N/A,,Clear,230,2012-12-05 06:35:00
1:55 AM,60.8,53.6,77,30.15,10.0,SW,5.8,-,N/A,,Scattered Clouds,230,2012-12-05 06:55:00
2:15 AM,60.8,53.6,77,30.15,10.0,SW,5.8,-,N/A,,Overcast,220,2012-12-05 07:15:00
2:35 AM,59.0,53.6,82,30.15,10.0,SW,6.9,-,N/A,,Overcast,220,2012-12-05 07:35:00
2:55 AM,59.0,53.6,82,30.14,10.0,SW,6.9,-,N/A,,Overcast,220,2012-12-05 07:55:00
3:15 AM,59.0,53.6,82,30.14,10.0,WSW,4.6,-,N/A,,Mostly Cloudy,240,2012-12-05 08:15:00
3:35 AM,59.0,53.6,82,30.14,10.0,SW,3.5,-,N/A,,Mostly Cloudy,230,2012-12-05 08:35:00
3:55 AM,59.0,53.6,82,30.14,10.0,WSW,4.6,-,N/A,,Overcast,250,2012-12-05 08:55:00
4:15 AM,59.0,53.6,82,30.13,10.0,SW,6.9,-,N/A,,Overcast,220,2012-12-05 09:15:00
4:35 AM,59.0,53.6,82,30.13,10.0,SW,6.9,-,N/A,,Overcast,230,2012-12-05 09:35:00
4:55 AM,59.0,53.6,82,30.13,10.0,SW,5.8,-,N/A,,Overcast,220,2012-12-05 09:55:00
5:15 AM,59.0,53.6,82,30.13,10.0,WSW,4.6,-,N/A,,Overcast,240,2012-12-05 10:15:00
5:35 AM,59.0,53.6,82,30.13,10.0,SW,4.6,-,N/A,,Overcast,220,2012-12-05 10:35:00
5:55 AM,57.2,53.6,88,30.13,10.0,SW,4.6,-,N/A,,Scattered Clouds,230,2012-12-05 10:55:00
6:15 AM,57.2,53.6,88,30.13,10.0,SW,5.8,-,N/A,,Mostly Cloudy,220,2012-12-05 11:15:00
6:35 AM,59.0,53.6,82,30.13,10.0,SW,5.8,-,N/A,,Overcast,220,2012-12-05 11:35:00
6:55 AM,59.0,53.6,82,30.14,10.0,WSW,3.5,-,N/A,,Overcast,240,2012-12-05 11:55:00
7:15 AM,59.0,53.6,82,30.14,10.0,SW,3.5,-,N/A,,Overcast,230,2012-12-05 12:15:00
7:35 AM,59.0,53.6,82,30.15,10.0,WSW,3.5,-,N/A,Rain,Light Rain,250,2012-12-05 12:35:00
7:55 AM,59.0,53.6,82,30.16,10.0,Calm,Calm,-,N/A,,Overcast,0,2012-12-05 12:55:00
9:35 AM,59.0,55.4,88,30.19,10.0,Calm,Calm,-,N/A,Rain,Light Rain,0,2012-12-05 14:35:00
9:55 AM,59.0,55.4,88,30.20,10.0,Calm,Calm,-,N/A,Rain,Light Rain,0,2012-12-05 14:55:00
10:15 AM,59.0,57.2,94,30.20,10.0,Calm,Calm,-,N/A,Rain,Rain,0,2012-12-05 15:15:00
10:35 AM,59.0,57.2,94,30.20,7.0,WNW,3.5,-,0.01,Rain,Light Rain,300,2012-12-05 15:35:00
10:55 AM,59.0,57.2,94,30.20,10.0,Calm,Calm,-,0.01,Rain,Light Rain,0,2012-12-05 15:55:00
11:15 AM,59.0,55.4,88,30.19,10.0,NW,3.5,-,N/A,,Drizzle,320,2012-12-05 16:15:00
11:35 AM,59.0,57.2,94,30.19,10.0,NNW,4.6,-,N/A,Rain,Light Rain,340,2012-12-05 16:35:00
11:55 AM,59.0,55.4,88,30.18,10.0,North,5.8,-,N/A,Rain,Light Rain,350,2012-12-05 16:55:00
12:15 PM,59.0,53.6,82,30.18,10.0,North,9.2,-,N/A,Rain,Rain,350,2012-12-05 17:15:00
12:35 PM,57.2,51.8,82,30.18,10.0,North,4.6,-,0.01,Rain,Light Rain,350,2012-12-05 17:35:00
12:55 PM,57.2,53.6,88,30.17,10.0,NNE,4.6,-,0.01,Rain,Light Rain,20,2012-12-05 17:55:00
1:15 PM,59.0,53.6,82,30.17,10.0,NE,3.5,-,N/A,,Drizzle,50,2012-12-05 18:15:00
1:35 PM,59.0,50.0,72,30.16,10.0,NE,5.8,-,N/A,,Overcast,50,2012-12-05 18:35:00
1:55 PM,59.0,50.0,72,30.16,10.0,North,-9999.0,-,N/A,Rain,Light Rain,0,2012-12-05 18:55:00
2:15 PM,59.0,50.0,72,30.16,10.0,NNW,4.6,-,N/A,,Overcast,340,2012-12-05 19:15:00
2:35 PM,60.8,50.0,68,30.16,10.0,NW,3.5,-,N/A,,Overcast,310,2012-12-05 19:35:00
2:55 PM,59.0,50.0,72,30.17,10.0,NNW,4.6,-,N/A,,Overcast,340,2012-12-05 19:55:00
3:15 PM,59.0,50.0,72,30.17,10.0,North,3.5,-,N/A,,Overcast,10,2012-12-05 20:15:00
3:35 PM,59.0,50.0,72,30.17,10.0,Calm,Calm,-,N/A,,Overcast,0,2012-12-05 20:35:00
4:15 PM,59.0,48.2,67,30.17,10.0,Calm,Calm,-,N/A,,Overcast,0,2012-12-05 21:15:00
4:35 PM,59.0,42.8,55,30.17,10.0,North,3.5,-,N/A,,Overcast,360,2012-12-05 21:35:00
5:35 PM,55.4,42.8,63,30.19,10.0,Calm,Calm,-,N/A,,Overcast,0,2012-12-05 22:35:00
5:55 PM,53.6,44.6,72,30.20,10.0,Calm,Calm,-,N/A,,Overcast,0,2012-12-05 22:55:00
6:15 PM,53.6,42.8,67,30.20,10.0,Calm,Calm,-,N/A,,Overcast,0,2012-12-05 23:15:00
6:35 PM,51.8,42.8,71,30.20,10.0,Calm,Calm,-,N/A,,Scattered Clouds,0,2012-12-05 23:35:00
6:55 PM,48.2,41.0,76,30.20,10.0,Calm,Calm,-,N/A,,Clear,0,2012-12-05 23:55:00
7:15 PM,46.4,41.0,81,30.20,10.0,Calm,Calm,-,N/A,,Clear,0,2012-12-06 00:15:00
7:35 PM,42.8,41.0,93,30.21,10.0,Calm,Calm,-,N/A,,Clear,0,2012-12-06 00:35:00
7:55 PM,42.8,41.0,93,30.22,10.0,Calm,Calm,-,N/A,,Clear,0,2012-12-06 00:55:00
8:15 PM,41.0,41.0,100,30.22,10.0,Calm,Calm,-,N/A,,Clear,0,2012-12-06 01:15:00